NOAA 16 DEB

基本信息
目录编号:
42404
目录名称:
NOAA 16 DEB
国际标识:
2000-055SY
轨道中心:
EARTH
物体状态:
已陨落(2024-09-04)
发射日期:
2000-09-21 UTC
轨道信息
数据来源: 国际轨道数据
星历时间: 2024-07-17T22:19:09+0800
半长轴: 6859.467km
偏心率: 0.0064387
轨道倾角: 98.836°
近地点辐角: 50.735°
升交点赤经: 206.620°
平近点角: 309.958°
近地点: 437.165km
远地点: 525.499km
周期: 94.231分钟
每日圈数: 15.281543
详细信息
发射场:
AFWTR
轨道高度:
LEO
数据来源:
AOE Integration Group
参考系:
TEME
时间系统:
UTC
历元类型:
SGP4
2D轨道图
3D轨道图
轨道高度分析图
轨道倾角分析图
轨道综合分析图
查看轨道综合分析图